Date,TemperatureHighF,TemperatureAvgF,TemperatureLowF,DewpointHighF,DewpointAvgF,DewpointLowF,HumidityHigh,HumidityAvg,HumidityLow,PressureMaxIn,PressureMinIn,WindSpeedMaxMPH,WindSpeedAvgMPH,GustSpeedMaxMPH,PrecipitationSumIn
2013-5-1,91,75,60,36,21,6,35,15,4,29.98,29.76,20,7,0,0.00
2013-5-2,95,76,58,37,25,-7,39,19,2,30.10,29.94,9,3,0,0.00
2013-5-3,98,76,52,48,38,17,69,33,6,29.98,29.66,7,2,0,0.00
2013-5-4,92,75,58,48,37,19,70,33,7,29.67,29.39,16,5,0,0.00
2013-5-5,78,65,55,50,48,46,74,55,34,29.73,29.47,11,4,0,0.00
2013-5-6,78,65,57,55,51,49,88,64,38,29.87,29.73,16,3,0,0.19
2013-5-7,76,66,56,55,52,50,90,64,42,29.95,29.87,9,2,0,0.00
2013-5-8,77,63,55,54,51,48,88,67,41,30.04,29.93,10,4,0,0.01
2013-5-9,84,65,52,58,52,48,87,64,41,30.06,29.93,10,4,0,0.00
2013-5-10,88,68,51,60,54,48,88,63,38,30.09,29.94,13,3,0,0.00
2013-5-11,94,75,56,61,56,51,83,56,31,30.04,29.89,6,3,0,0.00
2013-5-12,94,74,58,58,52,43,77,49,18,30.03,29.87,9,4,0,0.00
2013-5-13,93,74,56,59,52,42,75,51,18,29.97,29.78,8,3,0,0.00
2013-5-14,89,72,56,58,53,46,82,53,32,29.83,29.74,10,4,0,0.00
2013-5-15,80,65,54,51,48,45,71,56,34,29.94,29.83,12,6,0,0.00
2013-5-16,80,65,54,54,49,46,75,59,35,29.92,29.81,16,5,0,0.00
2013-5-17,79,64,50,51,45,39,80,55,25,29.96,29.86,9,4,0,0.00
2013-5-18,86,67,49,52,46,28,87,54,13,30.06,29.92,7,3,0,0.00
2013-5-19,88,73,54,51,42,28,87,40,12,30.04,29.84,14,5,0,0.00
2013-5-20,94,78,63,48,39,12,54,30,5,29.93,29.77,11,5,0,0.00
2013-5-21,84,68,55,49,45,33,67,46,22,29.84,29.73,12,5,0,0.00
2013-5-22,77,62,50,43,26,-1,65,30,5,29.94,29.77,17,6,0,0.00
2013-5-23,82,63,47,44,37,19,76,46,10,29.91,29.78,7,3,0,0.00
2013-5-24,82,65,48,48,41,22,84,49,12,29.93,29.80,10,3,0,0.00
2013-5-25,81,64,50,50,46,42,80,56,26,29.92,29.83,9,4,0,0.00
2013-5-26,83,66,52,53,49,46,85,58,29,29.99,29.90,11,4,0,0.00
2013-5-27,70,61,52,57,50,46,89,69,48,30.01,29.91,9,4,0,0.07
2013-5-28,84,69,57,58,53,47,98,63,30,29.91,29.77,6,3,0,0.00
2013-5-29,85,70,58,56,52,49,80,55,32,29.85,29.75,8,4,0,0.01
2013-5-30,89,70,51,54,48,35,87,51,15,29.88,29.78,8,3,0,0.00
2013-5-31,96,75,52,52,44,30,89,42,10,29.91,29.76,13,4,0,0.00